User: anonymous   Login
Location: Palmerston North
(40.3500°S, 175.6170°E)
Time: 14:45:28
(UTC+13:00)
Language:

Cosmos 968 Rocket - Orbit

View from above orbital plane
View from above orbital plane
View from above satellite
View from above satellite

Ground track
Ground track

The orbit data is extracted from the following two-line orbital elements,

1 10521U 77119B   19316.49870733 -.00000033  00000-0 -20310-5 0  9994
2 10521  74.0282  81.3860 0021985 241.4394 118.4549 14.40764586198748
Epoch (UTC): 12 November 2019 11:58:08
Eccentricity: 0.0021985
inclination: 74.0282°
perigee height: 740 km
apogee height: 771 km
right ascension of ascending node: 81.3860°
argument of perigee: 241.4394°
revolutions per day: 14.40764586
mean anomaly at epoch: 118.4549°
orbit number at epoch: 19874

The dashed part of the orbit path shows where the satellite is in the earth's shadow,  

DLR